User: anonymous   Login
Location: Unspecified
(0.0000°N, 0.0000°E)
Time: 00:39:48
(UTC+00:00)
Language:

UME 2 Rocket - Orbit

View from above orbital plane
View from above orbital plane
View from above satellite
View from above satellite

Ground track
Ground track

The orbit data is extracted from the following two-line orbital elements,

1 10674U 78018A   17206.60310883 -.00000038 +00000-0 +19370-4 0  9993
2 10674 069.3634 321.1312 0162285 034.1375 049.7072 13.43603450934296
Epoch (UTC): 25 July 2017 14:28:28
Eccentricity: 0.0162285
inclination: 69.3634°
perigee height: 974 km
apogee height: 1217 km
right ascension of ascending node: 321.1312°
argument of perigee: 34.1375°
revolutions per day: 13.43603450
mean anomaly at epoch: 49.7072°
orbit number at epoch: 93429

The dashed part of the orbit path shows where the satellite is in the earth's shadow,  

DLR